Terug naar catalogus

YAOGAN-30 AF

ActiefMilitairVLEO
NORAD 49029·PAYLOAD·🇨🇳 China

Gelanceerd Jul 19, 2021 vanaf Xichang Satellite Launch Center

Loading…

Volgende Passages (komende 24 uur)

TLE

VersSource: Space-Track

Epoch: Sep 14, 2026, 15:04 UTC

1 49029U 21065D   26257.62834797  .00001728  00000-0  12788-3 0  9993
2 49029  34.9940  87.3484 0004547 323.9710  36.0691 15.03030708282121

Volg YAOGAN-30 AF in realtime met AllMySat

Download on the App Store